Content
SEND FEEDBACK

Daily
Averages
Monthly
Summary
United States of America

WILMINGTON, NORTH CAROLINA


Home > North America > United States > North Carolina
Elevation: 72 feet     Latitude: 34 16N     Longitude: 077 54W

WEATHER
 
SELECT A DAY
Number of Records: 208,961;   Date Range: 1/1/95 - 8/28/14
 
SHARE

PRINT THIS DATA

[ ← Previous Day ]
WEATHER ALMANAC - AUGUST 21, 2013
[ Next Day → ]
[ °C ]   °F
Weather ElementAverageHighLow
Temperature78 °F87.8 °F (11:00 am)71.6 °F (4:44 am)
Dewpoint72.9 °F75.9 °F (8:53 am)71.1 °F (3:53 am)
Humidity85.6 %100 % (4:44 am)62 % (11:00 am)
Barometer30.18 in30.22 in (9:53 am)30.12 in (6:53 pm)
Wind Speed2.5 mph10.4 mph (2:53 pm)
Weather ElementAverage
Visibility7.1 mi
Wind DirectionENE (55.9 °)

Weather ElementTotal
Precipitation---
Cooling Degree Days14.7 (Base 65)
Growing Degree Days29.7 (Base 50)
Averaged from 44 records on August 21, 2013
WEATHER CONDITIONS BREAKOUT
WIND DIRECTION BREAKOUT
WEATHER BY HOUR - AUGUST 21, 2013
[ °C ]   °F
Local TimeTemperatureDewpointHumidityBarometerVisibilityWind DirectionWind SpeedGust SpeedPrecipitationEventsConditions
12:53 AM75.0 °F73.0 °F94 %30.19 in8.0 miCalmClear
1:53 AM73.9 °F73.0 °F97 %30.17 in10.0 miCalmClear
2:53 AM73.0 °F72.0 °F96 %30.16 in10.0 miCalmClear
3:53 AM72.0 °F71.1 °F97 %30.17 in10.0 miCalmClear
4:44 AM71.6 °F71.6 °F100 %30.16 in5.0 miNNE (30°)3.5 mphScattered Clouds
4:49 AM71.6 °F71.6 °F100 %30.16 in1.8 miNNE (20°)3.5 mphMostly Cloudy
4:53 AM72.0 °F71.1 °F97 %30.17 in1.2 miCalmMostly Cloudy
5:02 AM71.6 °F71.6 °F100 %30.17 in0.5 miCalmFogFog
5:20 AM71.6 °F71.6 °F100 %30.16 in0.2 miCalmFogFog
5:53 AM72.0 °F72.0 °F100 %30.17 in0.5 miCalmFogFog
6:21 AM71.6 °F71.6 °F100 %30.17 in0.2 miNE (40°)3.5 mphFogFog
6:40 AM71.6 °F71.6 °F100 %30.18 in0.8 miCalmMist
6:43 AM71.6 °F71.6 °F100 %30.18 in1.5 miCalmMostly Cloudy
6:46 AM71.6 °F71.6 °F100 %30.18 in3.0 miCalmMostly Cloudy
6:49 AM71.6 °F71.6 °F100 %30.18 in1.8 miCalmScattered Clouds
6:53 AM72.0 °F71.1 °F97 %30.19 in0.8 miCalmMist
7:02 AM71.6 °F71.6 °F100 %30.19 in1.2 miCalmScattered Clouds
7:04 AM71.6 °F71.6 °F100 %30.19 in2.5 miCalmScattered Clouds
7:11 AM71.6 °F71.6 °F100 %30.19 in5.0 miCalmPartly Cloudy
7:53 AM75.9 °F73.9 °F94 %30.21 in10.0 miCalmClear
8:53 AM80.1 °F75.9 °F87 %30.21 in10.0 miEast (100°)3.5 mphClear
9:53 AM82.9 °F73.9 °F74 %30.22 in10.0 miCalmPartly Cloudy
10:44 AM84.2 °F73.4 °F70 %30.22 in10.0 miCalmMostly Cloudy
10:53 AM84.0 °F73.0 °F69 %30.22 in10.0 miCalmMostly Cloudy
11:00 AM87.8 °F73.4 °F62 %30.22 in10.0 miCalmOvercast
11:14 AM86.0 °F73.4 °F66 %30.22 in10.0 miWest (280°)3.5 mphMostly Cloudy
11:53 AM84.9 °F73.0 °F67 %30.22 in10.0 miCalmPartly Cloudy
12:53 PM84.0 °F75.0 °F74 %30.21 in10.0 miESE (120°)6.9 mphScattered Clouds
1:53 PM86.0 °F73.9 °F67 %30.19 in10.0 miSouth (170°)5.8 mphScattered Clouds
2:16 PM84.2 °F75.2 °F74 %30.18 in10.0 miSE (130°)9.2 mphMostly Cloudy
2:27 PM84.2 °F73.4 °F70 %30.18 in10.0 miESE (120°)9.2 mphMostly Cloudy
2:53 PM86.0 °F75.0 °F70 %30.17 in10.0 miESE (120°)10.4 mphMostly Cloudy
3:20 PM87.8 °F73.4 °F62 %30.15 in10.0 miSSE (150°)8.1 mphScattered Clouds
3:53 PM87.1 °F73.9 °F65 %30.15 in10.0 miSouth (170°)8.1 mphClear
4:53 PM86.0 °F73.0 °F65 %30.14 in10.0 miSSE (160°)8.1 mphClear
5:53 PM86.0 °F73.9 °F67 %30.13 in10.0 miSouth (170°)9.2 mphClear
6:53 PM84.0 °F75.0 °F74 %30.12 in10.0 miSouth (180°)6.9 mphPartly Cloudy
7:53 PM81.0 °F73.9 °F79 %30.13 in10.0 miSouth (170°)3.5 mphClear
8:53 PM80.1 °F75.0 °F85 %30.16 in10.0 miCalmClear
9:53 PM79.0 °F75.0 °F88 %30.18 in10.0 miNW (320°)4.6 mphClear
10:38 PM77.0 °F73.4 °F89 %30.18 in10.0 miNorth (10°)4.6 mphMostly Cloudy
10:51 PM75.2 °F71.6 °F89 %30.17 in10.0 miCalmScattered Clouds
10:53 PM75.9 °F72.0 °F87 %30.17 in10.0 miCalmScattered Clouds
11:53 PM73.9 °F72.0 °F93 %30.15 in10.0 miCalmClear
Hourly data recorded from KILM, located miles away from Wilmington, North Carolina







STORIES FROM OUR PARTNERS